Weather History for KFAY - September, 2013

Change the Weather History Date:

Friday, September 27, 2013

  Actual Average Record
Temperature  
Mean Temperature 67 °F 70 °F  
Max Temperature 78 °F 80 °F 94 °F (1933)
Min Temperature 56 °F 60 °F 42 °F (1943)
Degree Days  
Heating Degree Days 0 1  
Month to date heating degree days 0 5  
Since 1 July heating degree days 0 5  
Cooling Degree Days 2 6  
Month to date cooling degree days 260 254  
Year to date cooling degree days 1839 1894  
Growing Degree Days 14 (Base 50)    
Moisture  
Dew Point 55 °F    
Average Humidity 71    
Maximum Humidity 93    
Minimum Humidity 49    
Precipitation  
Precipitation 0.00 in 0.15 in 2.74 in (1962)
Month to date precipitation 1.07 3.97  
Year to date precipitation 35.63 35.40  
Sea Level Pressure  
Sea Level Pressure 30.08 in    
Wind  
Wind Speed 8 mph (NNE)    
Max Wind Speed 18 mph    
Max Gust Speed 25 mph    
Visibility 10 miles    
Events      
T = Trace of Precipitation, MM = Missing Value Source: NWS Daily Summary

Daily Weather History Graph

Daily Weather History Graph

Search for Another Location

Airport or City:

Trip Planner

Search our weather history database for the weather conditions in past years. The results will help you decide how hot, cold, wet, or windy it might be!

Date:

Astronomy

Sep. 27, 2013 Rise Set
Actual Time 7:07 AM EDT 7:04 PM EDT
Civil Twilight 6:42 AM EDT 7:30 PM EDT
Nautical Twilight 6:12 AM EDT 7:59 PM EDT
Astronomical Twilight 5:43 AM EDT 8:28 PM EDT
Moon 12:14 AM EDT (9/27) 2:29 PM EDT (9/27)
Length of Visible Light 12h 47m
Length of Day
11h 57m
Last Quarter, 45% of the Moon is Illuminated
Sep 27
Last Quarter
Oct 4
New
Oct 11
First Quarter
Oct 18
Full
Oct 26
Last Quarter

Hourly Weather History & Observations

Time (EDT) Temp. Dew Point Humidity Pressure Visibility Wind Dir Wind Speed Gust Speed Precip Events Conditions
12:53 AM 57.9 °F 54.0 °F 87% 30.00 in 10.0 mi NNE 5.8 mph - N/A   Clear
1:53 AM 57.9 °F 55.0 °F 90% 30.01 in 10.0 mi NNE 4.6 mph - N/A   Clear
2:53 AM 55.9 °F 54.0 °F 93% 30.01 in 10.0 mi NNE 5.8 mph - N/A   Clear
3:53 AM 59.0 °F 55.9 °F 90% 30.01 in 10.0 mi North 9.2 mph - N/A   Clear
4:53 AM 57.0 °F 55.0 °F 93% 30.01 in 10.0 mi NNE 6.9 mph - N/A   Clear
5:53 AM 57.9 °F 55.0 °F 90% 30.03 in 10.0 mi NNE 9.2 mph - N/A   Clear
6:53 AM 57.9 °F 55.9 °F 93% 30.04 in 10.0 mi NNE 8.1 mph - N/A   Clear
7:53 AM 59.0 °F 57.0 °F 93% 30.06 in 10.0 mi NNE 8.1 mph - 0.01 in   Clear
8:53 AM 63.0 °F 59.0 °F 87% 30.09 in 10.0 mi NNE 10.4 mph - N/A   Clear
9:53 AM 69.1 °F 59.0 °F 70% 30.10 in 10.0 mi NNE 9.2 mph - N/A   Clear
10:53 AM 70.0 °F 57.0 °F 63% 30.11 in 10.0 mi NE 9.2 mph - N/A   Partly Cloudy
11:53 AM 73.0 °F 55.0 °F 53% 30.12 in 10.0 mi NNE 10.4 mph - N/A   Partly Cloudy
12:53 PM 73.9 °F 54.0 °F 50% 30.10 in 10.0 mi NE 13.8 mph 21.9 mph N/A   Mostly Cloudy
1:53 PM 73.0 °F 54.0 °F 51% 30.09 in 10.0 mi NE 9.2 mph - N/A   Mostly Cloudy
2:53 PM 73.9 °F 53.1 °F 48% 30.08 in 10.0 mi NE 11.5 mph - N/A   Overcast
3:53 PM 73.0 °F 53.1 °F 49% 30.08 in 10.0 mi NNE 15.0 mph - N/A   Overcast
4:53 PM 73.9 °F 53.1 °F 48% 30.07 in 10.0 mi NNE 9.2 mph - N/A   Mostly Cloudy
5:53 PM 73.0 °F 53.1 °F 49% 30.08 in 10.0 mi NNE 9.2 mph - N/A   Overcast
6:53 PM 69.1 °F 55.0 °F 61% 30.09 in 10.0 mi NE 5.8 mph - N/A   Mostly Cloudy
7:53 PM 64.0 °F 54.0 °F 70% 30.10 in 10.0 mi NNE 4.6 mph - N/A   Clear
8:53 PM 62.1 °F 55.0 °F 78% 30.12 in 10.0 mi North 3.5 mph - N/A   Clear
9:53 PM 59.0 °F 54.0 °F 83% 30.13 in 10.0 mi NNE 5.8 mph - N/A   Clear
10:53 PM 59.0 °F 54.0 °F 83% 30.15 in 10.0 mi NNE 5.8 mph - N/A   Clear
11:53 PM 57.0 °F 54.0 °F 89% 30.15 in 10.0 mi North 4.6 mph - N/A   Clear